Regional Weather Roundup
Issued by NWS Wakefield, VA

Home | Current Version | Previous Version | Text Only | Print | Product List | Glossary On
Versions: 1 2 3 4 5 6 7 8 9 10 11 12 13 14 15 16 17 18 19 20 21 22 23 24 25 26 27 28 29 30 31 32 33 34 35 36 37 38 39 40 41 42 43 44 45 46 47 48 49 50
773
ASUS41 KAKQ 262216
RWRAKQ

REGIONAL WEATHER ROUNDUP
NATIONAL WEATHER SERVICE WAKEFIELD VA
600 PM EDT TUE SEP 26 2017

Note: "fair" indicates few or no clouds below 12,000 feet with no
significant weather and/or obstructions to visibility. * = Denotes
station may not report precipitation (e.g., rain,snow,etc.),
thunder or fog.

VAZ042-051-052>054-056-262300-
NORTHERN VIRGINIA

CITY           SKY/WX    TMP DP  RH WIND       PRES   REMARKS
WASH NATIONAL  PTSUNNY   82  72  71 E8        29.94S
DULLES         MOSUNNY   83  67  58 NE7       29.95R
FORT BELVOIR   CLOUDY    80  70  71 CALM      29.93S
QUANTICO       PTSUNNY   80  73  79 NE7       29.94S
FREDERICKSBRG* CLOUDY    78  72  80 N8        29.92F
STAFFORD*      CLOUDY    78  73  83 NE5       29.97F
WARRENTON      MOSUNNY   85  63  48 E5        29.93F
CULPEPER*      PTSUNNY  N/A N/A N/A N7        29.95S
MANASSAS*      PTSUNNY   82  68  62 E9        29.94R
LEESBURG*      SUNNY     84  66  54 NE8       29.96R
WINCHESTER     MOSUNNY   81  64  57 CALM      29.97R
FRONT ROYAL*   CLEAR     81  64  57 E5        29.96R
LURAY*         CLEAR     82  61  47 NE9G16    29.97R
$$

VAZ048-049-060>072-079>083-262300-
CENTRAL AND SOUTH CENTRAL VIRGINIA

CITY           SKY/WX    TMP DP  RH WIND       PRES   REMARKS
RICHMOND       PTSUNNY   77  70  79 N13G23    29.90F
CHESTERFIELD*  NOT AVBL
PETERSBURG*    CLOUDY    76  68  77 N8        29.90S
HANOVER        MOSUNNY   78  70  76 N6        29.92F
TAPPAHANNOCK*  CLOUDY    78  69  75 N5        29.92S
QUINTON*       CLOUDY    75  73  91 N9        29.89S
CHARLOTTSVILLE CLOUDY    84  66  54 NE9       29.95R
GORDONSVILLE*  CLOUDY    82  68  63 N6        29.94R
ORANGE*        PTSUNNY   81  66  61 CALM      29.94S
LOUISA*          N/A     79  70  73 E6        29.94S
BUMPASS*       CLOUDY    78  72  82 NE3       29.94S
FARMVILLE*     MOSUNNY   84  71  64 NE13      29.91S
CREWE*         FAIR      79  74  86 NE6       29.91F
FORT PICKETT*  MOCLDY    79  74  87 N6        29.91S
CHASE CITY*    MOCLDY    81  72  75 NE5       29.90S
CLARKSVILLE*   FAIR      81  70  69 NE7       29.89S
SOUTH HILL*    PTSUNNY   76  71  84 N12       29.95S
LAWRENCEVILLE* CLOUDY    76  70  81 N5        29.89S
EMPORIA*       CLOUDY    73  70  88 NW12      29.87F
$$

VAZ088>098-262300-
SOUTHEAST VIRGINIA

CITY           SKY/WX    TMP DP  RH WIND       PRES   REMARKS
NORFOLK        CLOUDY    76  74  93 NE24G32   29.81F
VIRGINIA BEACH CLOUDY    73  71  93 NE22G29   29.79F FOG
NORFOLK NAVAL  CLOUDY    77  73  87 N24G30    29.84S
WEST POINT*    CLOUDY    75  70  83 N5        29.89S
SALUDA*        CLOUDY    76  73  91 N12       29.88S
NEWPORT NEWS   CLOUDY    75  72  90 N12       29.84F
LANGLEY AFB    LGT RAIN  75  73  94 N15G23    29.83S
FORT EUSTIS    CLOUDY    75  71  88 N13G18    29.83S
WILLIAMSBURG*  MOSUNNY   79  72  78 N10G16    29.87S
HR EXEC AP*    RAIN      74  73  97 N12       29.83S FOG
FRANKLIN*      RAIN      73  71  94 N10G17    29.84S
US460-WAKEFLD  CLOUDY    75  72  90 VRB6      29.86F
$$

VAZ020-022-025-037-045-262300-
WEST CENTRAL AND SOUTHWEST VIRGINIA

CITY           SKY/WX    TMP DP  RH WIND       PRES   REMARKS
STAUNTON*      SUNNY     84  60  44 N10       29.98S
WAYNESBORO*    CLEAR     82  63  51 N6        29.98S
HOT SPRINGS VA MOSUNNY   75  53  44 E3        30.12S
LYNCHBURG      SUNNY     84  61  45 NE10G17   29.94R
DANVILLE       CLOUDY    84  69  60 NE6       29.90S
SOUTH BOSTON*  FAIR      82  67  61 N8        29.90S
MARTINSVILLE   SUNNY     82  64  54 NE3       29.95S
ROANOKE        MOSUNNY   87  57  35 NE9       29.96R
BLACKSBURG     MOSUNNY   82  62  49 NE6       30.02S
DUBLIN*        SUNNY     83  63  50 CALM      30.01S
MARION*        SUNNY     82  49  32 N5        30.05S
HILLSVILLE*    CLOUDY    78  56  46 CALM      30.03S
RICHLANDS*     MOCLDY    79  57  48 N3        30.05R
WISE*          MOSUNNY   79  59  50 N6        30.07S
ABINGDON*      MOSUNNY   85  58  40 N7        30.00S
$$

MDZ021>025-VAZ099-100-262300-
SOUTHERN MARYLAND AND THE DELMARVA PENINSULA

CITY           SKY/WX    TMP DP  RH WIND       PRES   REMARKS
PATUXENT RIVER PTSUNNY   78  71  79 N13       29.91S
BAY BRIDGE APT PTCLDY    81  70  69 NE7       29.93F
LEONARDTOWN    CLOUDY    73  70  88 N6        29.93F
DOVER          MOCLDY    77  70  78 NE5       29.92F
GEORGETOWN     CLOUDY    76  68  76 NE13      29.93S
EASTON         MOCLDY    81  70  69 NE9       29.96
CAMBRIDGE      HAZE      79  72  78 NE8G18    29.91F VSB 1/4
SALISBURY      CLOUDY    74  71  91 NE10      29.91R
OCEAN CITY     CLOUDY    72  72 100 NE14G24   29.90F FOG
WALLOPS ISLAND CLOUDY    73  73 100 N12       29.88S
ACCOMACK*      CLOUDY    75  73  92 N13G20    29.86S
$$

NCZ012>017-030>032-262300-
NORTH CENTRAL AND EASTERN NORTH CAROLINA

CITY           SKY/WX    TMP DP  RH WIND       PRES   REMARKS
ROANOKE RAPIDS RAIN      73  72  94 N12G17    29.85S
RALEIGH        MOSUNNY   82  69  64 NE15G24   29.87S
ELIZABETH CITY CLOUDY    77  75  93 N20G30    29.76S
AHOSKIE*       CLOUDY    74  73  98 N9G17     29.82F
EDENTON*       CLOUDY    80  72  76 N16       29.75F
CURRITUCK*     CLOUDY    75  73  91 N24G32    29.77R
KILL DEVIL HLS NOT AVBL
MANTEO         DRIZZLE   74  72  91 NE29G37   29.70R
CAPE HATTERAS  CLOUDY    77  73  87 N17G32    29.59F
TARBORO*       NOT AVBL
GOLDSBORO      MOSUNNY   82  75  81 N17G25    29.80F
WASHINGTON     PTSUNNY   79  72  77 N13G29    29.76F
GREENVILLE     LGT RAIN  77  73  88 N14       29.83R
NEW BERN       CLOUDY    80  71  74 N18G28    29.74S
WILMINGTON     MOSUNNY   83  70  64 N13       29.76S
$$

VAZ048-262300-
ELSEWHERE

CITY           SKY/WX    TMP DP  RH WIND       PRES   REMARKS
HARRISBURG PA  MOSUNNY   85  67  54 E9        29.94S
BALTIMORE      PTSUNNY   81  69  67 E8        29.93F
ANNAPOLIS      MOSUNNY   81  74  79 N5        29.93F
ANDREWS AFB    MOSUNNY   77  70  78 NE3       29.93S
PHILADELPHIA   MOCLDY    82  67  60 E8        29.95S
GREENSBORO     MOSUNNY   85  69  58 N8        29.91S
ROCKY MOUNT    RAIN      75  73  93 N13       29.84F FOG
$$

VAZ100-262300-
MARINE

STATION/POSITION TIME  TEMP    WIND        PRES    WAVE   SWELL
                       AIR SEA DIR/SP/G            HT/PER HT/PER
                 (UTC) (F)     (DEG/KT/KT) (MB)    (FT/S) (FT/S)
BRANDYWINE LGT   2136   77      50/ 13/ 14 1013.7F
CAPE MAY NJ      2142   76 74   50/  6/ 12 1013.0F
LEWES DE         2136   74 74   60/ 16/ 18 1013.2F
15NM E FENWICK I 2150   70 71   20/ 21/ 25 1012.2F   7/15   5/15
OCEAN-CITY-INLET 2136   72 74   50/  5/ 13 1013.0S
WACHAPREAGUE VA  2136   75 76   20/ 13/ 18 1010.9F
THOMAS POINT MD  2200   77 77  360/ 10/ 10   N/A
GOOSES REEF MD   2200   78 76   50/  8/ 12 1014.8    0
COVE POINT MD    2136   76      30/ 12/ 16 1013.7S
SOLOMONS ISLAND  2136   76 77  350/ 10/ 13 1012.6S
BISHOPS HEAD MD  2136   77 78   30/ 14/ 17 1012.6F
PINEY POINT MD   2136           20/  7/  9   N/A
POTOMAC MD       2200   78 77   40/ 16/ 17 1011.4    1/ 2
CAMBRIDGE MD     2136   78 78              1013.9F
LEWISETTA VA     2136   77 77   30/  7/ 10 1012.4F
RAPPAHANNOCK LGT 2136           20/ 21/ 26 1011.7S
STINGRAY PT      2200   76 76   50/ 17/ 21 1011.6    3/ 3
YORK RVR RNG VA  2136   76      20/ 23/ 26 1010.9R
YORKTOWN VA      2136   76 77   20/ 17/ 22 1010.4F
JAMESTOWN VA     2200      79   10/ 10/ 17   N/A     1
DOMINION TERM VA 2136   74      20/ 14/ 21 1010.4F
KIPTOPEKE VA     2136      75   30/ 12/ 25   N/A
CHES BAY BRIDGE  2136   75 75   30/ 24/ 32 1009.3S
CAPE HENRY VA    2136   73      20/ 30/ 34   N/A
WILLOUBY STN VA  2136   75      10/ 18/ 21 1009.9S
S CRANEY ISL VA  2136   75      20/ 15/ 19 1009.5R
CAPE HENRY BUOY  2200      75                N/A     8/15   5/15
1ST LANDING BUOY 2200   75 75              1009.5    5/ 5
64NM E OF VA BCH 2150   74 70   40/ 25/ 29 1005.7R  19/14  16/14
DUCK PIER NC     2136   75 76   10/ 27/ 34 1005.6R
44100 DUCK FRF   2105      74                N/A    12/13   8/13
44056 DUCK FRF   2200      76                N/A    12/14   8/14
OREGON INLET NC  2136   74 77   10/ 24/ 32 1004.2R
HATTERAS NC      2136   76 77   10/ 31/ 40 1002.2F
DIAMOND SHLS NC  2150   77 81  360/ 33/ 41  999.0F  16/12  11/12
CAPE LOOKOUT NC  2200   80     350/ 22/ 27 1004.3R
$$




USA.gov is the U.S. government's official web portal to all federal, state and local government web resources and services.